Regional Weather Roundup
Issued by NWS San Diego, CA

Home | Current Version | Previous Version | Text Only | Print | Product List | Glossary On
Versions: 1 2 3 4 5 6 7 8 9 10 11 12 13 14 15 16 17 18 19 20 21 22 23 24 25 26 27 28 29 30 31 32 33 34 35 36 37 38 39 40 41 42 43 44 45 46 47 48 49 50
000
ASUS46 KSGX 251211
RWRSGX

SAN DIEGO HOURLY WEATHER ROUNDUP
NATIONAL WEATHER SERVICE SAN DIEGO CA
500 AM PDT SAT APR 25 2015

NOTE: "FAIR" INDICATES FEW OR NO CLOUDS BELOW 12,000 FEET WITH NO
SIGNIFICANT WEATHER AND/OR OBSTRUCTIONS TO VISIBILITY.

CAZ042-043-060-061-PZZ750-775-251300-

GREATER SAN DIEGO AREA

CITY           SKY/WX    TMP DP  RH WIND       PRES   REMARKS
LINDBERGH FLD  LGT RAIN  61  54  77 NW6       30.00S
POINT LOMA       N/A     58  51  78 W10         N/A
CHULA VISTA      N/A     60  54  80 CALM      29.92F
IMPERIAL BEACH CLOUDY    61  53  75 W8        30.00S
BROWN FIELD    CLOUDY    57  51  80 SE6       29.99S
MIRAMAR MCAS   MOCLDY    60  51  72 SE6       29.98S
MONTGOMERY FLD CLOUDY    59  52  77 SE6       29.99S

$$

NORTH SAN DIEGO COUNTY

CITY           SKY/WX    TMP DP  RH WIND       PRES   REMARKS
CAMP PENDLETON LGT RAIN  58  53  84 N3        29.98S
OCEANSIDE AP   CLOUDY    61  52  72 S3        29.97S
VISTA            N/A     58  52  82 CALM      29.97S
CARLSBAD       CLOUDY    59  52  77 SE3       29.97S
FALLBROOK        N/A     56  56  99 CALM      30.00S
SAN MARCOS       N/A     57  53  85 CALM      29.97S
POWAY            N/A     56  52  88 CALM      30.01S

$$

EAST SAN DIEGO COUNTY

CITY           SKY/WX    TMP DP  RH WIND       PRES   REMARKS
RAMONA         CLOUDY    53  49  86 CALM      29.98S
SANTEE LAKES     N/A     58  53  81 CALM      29.99S
LA MESA          N/A     57  52  84 CALM      29.93F
DESCANSO N       N/A     45  44  96 CALM      29.90F
MT. LAGUNA OBS   N/A     37  37 100 W14       29.55F WCI  28
CAMPO            N/A     48  45  89 SW12      29.94F

$$

ORANGE COUNTY AND THE LOS ANGELES BASIN

CITY           SKY/WX    TMP DP  RH WIND       PRES   REMARKS
JOHN WAYNE AP  CLOUDY    60  50  69 CALM      29.98S
LAKE FOREST FR   N/A     54  50  86 CALM      29.89S
SANTA ANA        N/A     60  53  78 CALM      29.93S
HUNTINGTON BCH   N/A     59  53  83 CALM      30.00S
FULLERTON      CLOUDY    60  49  66 W3        29.97S
LONG BEACH     CLOUDY    59  51  75 W6        29.98S
L.A. AP        MOCLDY    57  51  80 W5        29.98F
L.A. DOWNTOWN  CLOUDY    58  50  75 CALM      29.97S

$$

THE INLAND EMPIRE

CITY           SKY/WX    TMP DP  RH WIND       PRES   REMARKS
CORONA         CLOUDY    56  51  83 CALM      29.98S
CHINO          CLOUDY    57  50  77 W9        29.98F
ONTARIO        CLOUDY    56  50  80 W7        29.97S
RIVERSIDE AP   CLOUDY    56  50  80 W3        29.97S
RIV CYN CREST    N/A     55  55 100 W1          N/A
MARCH ARB      CLOUDY    54  50  87 SE2       29.96F
HORSETHIEF CYN   N/A     52  46  79 CALM      29.95S
MENIFEE          N/A     55  52  91 S3        30.03S
HEMET EAST       N/A     51  46  86 CALM      29.98R
FRENCH VALLEY  CLOUDY    54  50  87 CALM      29.98S
TEMECULA         N/A     55  52  91 SW3       29.95R

$$

SAN BERNARDINO AND RIVERSIDE COUNTY MOUNTAINS

CITY           SKY/WX    TMP DP  RH WIND       PRES   REMARKS
BIG BEAR AP    PTCLDY    34  32  93 SW8       29.96F WCI  27
ANGELUS OAKS     N/A     36  34  91 CALM      29.92R

$$

SOUTHERN DESERT INCLUDING THE COACHELLA VALLEY

CITY           SKY/WX    TMP DP  RH WIND       PRES   REMARKS
PALM SPRINGS   CLEAR     62  45  53 CALM      29.85R
THOUSAND PALMS   N/A     64  45  50 W14       29.83R
THERMAL        CLEAR     64  46  52 NW8       29.82S
BLYTHE         CLEAR     60  48  64 S5        29.83S
IMPERIAL AP    CLEAR     61  46  57 W7        29.86S
EL CENTRO NAS  CLEAR     63  45  51 W18       29.88F
YUMA AZ        MOCLDY    63  44  50 NW7       29.86S

$$

UPPER DESERT

CITY           SKY/WX    TMP DP  RH WIND       PRES   REMARKS
VICTORVILLE AP PTCLDY    52  36  54 W18G25    29.90F
HESPERIA         N/A     48  44  87 W5        30.05S
APPLE VALLEY     N/A     50  42  73 SW3       30.01S
PALMDALE       MOCLDY    49  41  74 SW9       29.94F
LANCASTER      MOCLDY    51  31  46 W23       29.94R
EDWARDS AFB    MOCLDY    54  31  41 SW12      29.90R
DAGGETT        PTCLDY    58  32  37 SW36G48   29.81F
29 PALMS N     CLEAR     57  36  45 NW12      29.92R
NEEDLES        CLEAR     64  38  38 SW6       29.80R

$$

REGIONAL REPORTS

CITY           SKY/WX    TMP DP  RH WIND       PRES   REMARKS
SANTA BARBARA  CLOUDY    52  46  80 W3        29.97F
SANDBERG       MOCLDY    43  31  62 NW15G23   29.98F
MT. WILSON       N/A     39  39 100 MISG        N/A
LAS VEGAS NV   MOCLDY    59  36  42 S15       29.73S
PHOENIX AZ     PTCLDY    63  42  46 SE8       29.87S
TIJUANA        MOCLDY    57  48  72 CALM      30.01S
ENSENADA NW      N/A     59  32  36 N2        29.98F

$$

OFFSHORE ISLANDS

CITY           SKY/WX    TMP DP  RH WIND       PRES   REMARKS
CATALINA ARPT  CLOUDY    51  49  92 CALM      29.98F
SAN NICOLAS IS MOCLDY   N/A N/A N/A NW24G35   29.98F

$$

MARINE AND OFFSHORE BUOY REPORTS

STATION/POSITION SKY/WX   TEMP    WIND        PRES    SWELL
                          AIR SEA DIR/SP/G            HT/PER/DIR
                          (F)     (DEG/KT/KT) (MB)    (FT/S/D)
TANNER BANKS               59 60  320/ 21/ 25 1016.3R   3/330/14
S CLEMENTE BASIN           59 63  290/ 14/ 16 1015.5F   5/290/ 7
SAN NICOLAS IS.               59                N/A     3/300/11
SO. S. ROSA ISLA           58 59  330/ 21/ 27 1015.4R   3/16
W. S. BARBARA CH           55 55  340/ 12/ 16 1015.5F   5/310/ 6
S. MONICA BASIN            58 61  330/  8/ 10 1015.3F   3/270/ 6
S PEDRO CHANNEL               61                N/A     2/200/13
DANA POINT                    62                N/A     2/200/12
OCEANSIDE OFFSHR              63                N/A     2/220/17
TORREY PINES OTR              63                N/A     2/210/17
LA JOLLA 1                 61 63  190/  4/  6 1015.1F
MISSION BAY BUOY              63                N/A     2/270/11
SAN DIEGO BAY                 67              1015.7F
POINT LOMA SOUTH              64                N/A     2/220/17

$$



USA.gov is the U.S. government's official web portal to all federal, state and local government web resources and services.